Wind_Speed
18 14 11 17 19 22 23 24 23 23 24 23 22 23 22 23 24 23 23 27 23 16 15 12 13 9 13 12 15 15 17 16 14
20 18 15 16 17 24 25 26 25 26 24 20 21 22 22 23 23 20 20 23 19 13 16 11 8 5 10 3 11 14 16 16 14
14 17 18 17 16 22 24 26 27 24 24 23 22 23 21 21 15 13 16 14 16 9 10 10 6 10 2 6 5 11 10 12 12
19 17 16 15 13 26 26 26 28 28 27 26 25 25 22 16 16 15 13 16 12 9 7 8 6 6 7 5 6 7 6 8 10
9 11 14 13 13 19 25 24 25 28 27 27 25 20 19 15 15 16 14 14 11 8 6 7 5 7 4 4 4 5 5 5 8
2 13 11 13 13 12 17 26 25 26 27 26 22 18 17 16 15 16 14 13 13 11 9 9 11 10 7 6 5 5 4 4 5
12 14 12 12 12 11 18 24 27 27 29 25 21 21 17 21 16 14 13 16 15 11 10 9 10 9 9 11 11 11 9 7 7
12 11 11 11 12 9 15 21 26 30 23 26 24 26 26 23 19 19 18 19 16 13 10 11 9 9 9 9 9 10 9 9 9
13 14 12 13 14 12 14 21 26 28 23 19 29 29 26 18 15 30 27 23 20 16 13 11 9 10 9 9 8 5 4 5 6
14 15 13 16 17 15 20 24 30 29 24 21 28 30 23 25 30 29 26 22 19 15 13 13 11 9 7 7 5 3 4 7 8
14 13 13 15 15 19 24 27 29 27 24 26 29 29 28 31 30 27 24 21 18 17 15 13 11 8 6 3 3 3 4 7 8
10 10 12 16 27 28 29 30 33 30 25 30 27 31 31 31 27 24 22 20 19 15 13 12 11 10 10 4 4 3 4 6 8
9 7 15 20 26 27 30 31 35 32 29 30 27 29 30 30 30 24 23 20 18 15 12 12 12 12 11 6 2 1 0 2 4
7 5 8 21 28 27 31 32 32 29 27 25 29 27 28 30 28 28 23 20 20 15 12 12 16 13 8 5 2 2 3 2 5
7 6 6 7 19 21 27 31 31 24 24 27 30 25 25 26 27 25 24 25 18 15 17 19 16 11 7 2 1 5 1 3 7
4 6 3 10 16 17 18 27 28 23 21 26 26 29 28 29 27 26 23 21 22 20 17 15 10 8 8 8 9 5 3 4 7
6 5 5 6 14 13 11 16 21 25 25 27 30 30 27 27 26 23 21 21 21 20 17 14 13 13 13 13 19 13 9 7 6
6 7 13 18 13 15 16 13 15 22 23 26 22 25 24 23 23 21 19 20 20 18 16 16 18 16 15 14 20 22 15 8 3
14 8 11 13 7 6 10 15 18 21 26 27 25 21 20 22 22 19 20 21 18 16 14 14 14 12 12 10 19 18 11 6 7
16 19 20 19 17 17 10 8 13 18 22 25 27 25 21 20 17 18 20 21 20 19 16 12 9 10 12 17 17 13 9 6 4
Wind_Direction
205 202 183 151 157 144 157 161 167 176 184 187 192 198 205 205 211 212 222 232 235 242 253 279 267 255 245 236 221 207 201 202 207
152 144 137 129 150 152 156 162 171 176 177 181 184 191 195 199 207 214 213 219 224 223 227 245 241 225 253 248 243 206 192 203 212
131 136 145 146 144 153 158 161 169 171 171 174 179 184 195 207 214 201 200 184 189 192 201 209 199 221 92 117 204 215 198 190 199
138 146 147 146 147 152 160 160 162 168 171 177 191 192 203 203 201 186 187 170 165 188 197 185 192 195 211 188 168 175 181 194 205
121 137 141 144 146 150 155 164 164 168 178 185 195 191 184 180 169 174 179 181 185 166 161 163 163 161 179 163 165 155 156 181 199
253 139 138 146 149 156 162 161 170 169 182 186 189 189 188 181 167 171 168 161 150 142 105 154 118 101 120 132 155 144 142 161 179
177 153 152 148 154 159 160 161 159 168 181 183 182 187 172 166 174 171 149 146 142 135 115 115 107 109 119 128 124 130 118 118 121
141 149 150 152 157 157 153 153 157 166 163 178 175 173 170 174 171 163 157 154 144 142 136 127 133 132 120 125 123 118 118 101 113
157 165 158 153 155 146 146 153 156 167 169 172 175 166 172 176 172 161 151 147 144 147 140 141 128 121 129 120 118 126 164 153 104
167 169 163 155 157 154 156 157 162 170 175 181 181 173 166 159 158 154 157 159 158 157 157 150 129 133 138 118 105 131 160 156 117
165 160 161 159 157 156 160 162 168 177 180 182 172 178 165 161 163 165 167 164 163 156 155 155 153 134 129 105 72 154 160 148 133
162 165 164 165 165 164 164 167 174 181 178 177 166 162 163 166 171 171 169 160 160 163 157 153 151 152 139 132 118 134 145 131 126
77 118 148 163 168 167 169 174 176 176 171 169 168 163 168 179 181 176 171 166 162 159 161 157 163 147 134 139 138 131 320 162 130
107 91 90 165 170 174 178 176 176 177 170 165 162 178 188 185 183 179 169 159 158 154 163 164 150 136 137 156 107 20 349 215 156
95 107 87 124 155 163 173 174 174 162 164 167 184 173 201 172 173 161 156 158 155 161 154 136 130 130 126 221 282 75 293 174 156
134 131 127 106 123 127 151 171 170 145 160 167 161 167 159 158 156 158 161 169 162 152 161 157 154 171 196 212 204 202 178 126 119
99 97 96 87 115 102 98 142 156 164 162 158 153 153 152 156 156 160 167 170 174 172 176 185 193 197 210 213 200 203 192 161 135
127 110 72 56 97 124 133 153 152 158 166 164 146 154 153 161 164 167 170 175 181 191 202 208 199 208 220 217 199 205 192 170 152
33 64 110 84 86 129 156 159 167 165 170 170 159 158 162 167 171 164 173 180 178 188 203 209 223 232 241 242 210 182 183 189 212
68 63 85 85 54 35 334 255 191 181 178 172 165 164 167 174 164 168 172 181 190 188 197 208 226 228 222 224 209 190 189 200 223
Height
710 714 719 721 729 735 741 747 752 756 761 765 770 775 779 783 787 790 792 794 793 796 796 795 796 799 797 798 801 801 804 807 809
703 708 712 720 729 734 742 746 750 753 758 764 768 773 776 780 784 788 789 788 790 790 794 796 798 797 797 790 799 799 801 804 806
704 707 711 714 724 732 737 742 747 752 757 763 767 771 774 777 779 783 785 788 789 791 794 796 795 794 795 796 795 797 799 801 804
701 706 712 716 721 729 734 739 744 751 756 761 765 769 770 774 777 780 782 786 787 790 793 794 794 795 795 795 794 795 798 800 802
702 705 710 716 720 724 731 737 742 748 754 757 761 765 767 771 775 778 780 783 786 789 791 792 792 793 794 795 796 797 796 798 801
711 708 712 716 721 725 727 734 739 745 750 754 758 763 767 770 774 776 780 784 787 789 790 790 792 792 793 795 797 797 797 798 800
706 707 711 714 720 723 725 729 736 741 747 751 756 760 765 769 772 775 779 783 785 788 789 791 793 794 795 796 797 798 799 799 801
701 706 709 713 717 721 724 727 732 738 743 749 753 757 760 766 769 774 778 782 784 787 790 792 794 795 795 797 797 799 800 801 802
699 701 701 706 712 717 722 726 730 737 741 746 750 754 759 764 767 772 776 779 782 785 789 792 794 794 795 797 797 799 800 801 802
692 695 698 701 706 712 718 723 728 732 737 742 748 752 758 761 766 771 773 776 779 784 787 790 792 793 795 797 798 799 799 800 801
684 688 694 697 701 708 714 721 726 730 735 740 745 750 755 761 765 768 771 775 779 782 785 788 791 792 794 796 798 800 800 799 799
678 682 687 692 695 701 709 715 721 728 733 737 742 746 753 759 764 768 773 775 778 783 786 788 791 792 793 797 800 801 801 799 799
676 679 683 690 694 699 704 710 716 723 728 734 740 747 753 756 757 761 771 774 778 783 787 788 791 793 789 797 800 800 799 798 798
676 681 683 687 691 695 699 705 711 716 722 730 737 748 752 753 757 759 765 771 777 781 785 786 789 791 793 796 798 798 799 798 797
680 683 685 686 688 692 696 700 706 713 720 727 732 728 746 751 755 760 762 767 774 778 782 785 789 791 793 796 795 793 800 799 796
686 688 689 688 689 692 696 699 703 710 716 722 731 740 745 751 754 758 762 766 771 776 781 784 787 789 791 792 793 796 799 798 795
690 693 692 694 698 701 705 707 708 710 717 724 729 736 742 748 753 757 762 767 771 774 777 780 783 785 788 790 792 794 795 795 795
691 694 698 700 702 706 709 710 712 716 721 729 733 739 743 748 751 755 761 766 769 772 774 777 780 782 785 786 790 790 791 791 791
700 699 702 707 711 710 713 716 716 715 717 720 728 738 743 748 752 754 759 763 766 770 774 777 778 779 781 784 785 788 787 787 790
706 708 708 711 716 718 722 726 721 725 726 727 727 729 739 748 751 754 757 760 764 768 772 773 774 776 778 781 781 782 784 786 787